Location: Unspecified
(42.3650°N, 71.1030°W)
Time: 22:25:29
(UTC+00:00)

Vanguard 2 - Visible Passes

Search period start: 25 June 2024 00:00
Search period end: 05 July 2024 00:00
Orbit: 552 x 2914 km, 32.9° (Epoch: 24 June)

Date Brightness Start Highest point End Pass type
(mag) Time Alt. Az. Time Alt. Az. Time Alt. Az.
25 Jun 11.1 06:25:38 10° SE 06:29:23 12° SE 06:33:32 10° ESE visible
25 Jun 10.8 08:25:48 10° SSW 08:37:14 37° SSE 08:52:05 10° E visible
26 Jun 10.8 06:36:38 11° SSE 06:42:48 17° SE 06:50:46 10° E visible
27 Jun 10.6 06:49:54 14° S 06:56:15 22° SE 07:06:27 10° E visible
28 Jun 10.4 07:03:08 16° S 07:09:47 27° SE 07:21:32 10° E visible
29 Jun 10.3 07:16:22 17° SSW 07:23:24 33° SE 07:36:18 10° E visible
30 Jun 10.7 05:28:29 12° SE 05:29:49 12° SE 05:33:44 10° ESE visible
30 Jun 10.2 07:29:34 17° SSW 07:37:07 38° SSE 07:50:51 10° E visible
01 Jul 10.4 05:41:40 16° SE 05:43:15 17° SE 05:50:10 10° E visible
01 Jul 10.1 07:42:46 16° SW 07:50:55 44° SSE 08:05:17 10° E visible
02 Jul 10.1 05:54:51 21° SSE 05:56:46 22° SE 06:05:29 10° E visible
02 Jul 10.0 07:55:57 14° SW 08:04:50 48° SSE 08:19:39 10° E visible
03 Jul 9.9 06:08:03 25° SSE 06:10:21 27° SE 06:20:21 10° E visible
03 Jul 10.0 08:09:09 11° WSW 08:18:49 52° SSE 08:33:57 10° E visible
04 Jul 9.6 06:21:14 28° S 06:24:02 33° SSE 06:34:58 10° E visible
04 Jul 9.9 08:22:53 10° WSW 08:32:51 55° S 08:48:11 10° E visible
